Time,TemperatureF,DewpointF,PressureIn,WindDirection,WindDirectionDegrees,WindSpeedMPH,WindSpeedGustMPH,Humidity,HourlyPrecipIn,Conditions,Clouds,dailyrainin,SoftwareType,DateUTC
2013-02-19 07:24:00,39.6,38.0,0.00,WNW,287,1.3,4.9,94,0.00,,,0.00,WUHU216CR1000,2013-02-19 15:24:00,
2013-02-19 07:29:00,39.6,38.0,0.00,WNW,287,1.3,4.9,94,0.00,,,0.00,WUHU216CR1000,2013-02-19 15:29:00,
2013-02-19 07:34:00,39.6,38.1,0.00,SSE,167,3.2,7.0,94,0.00,,,0.00,WUHU216CR1000,2013-02-19 15:34:00,
2013-02-19 07:39:00,39.6,38.1,0.00,SSE,167,3.2,7.0,94,0.00,,,0.00,WUHU216CR1000,2013-02-19 15:39:00,
2013-02-19 07:44:00,39.6,38.1,0.00,SSE,167,3.2,7.0,94,0.00,,,0.00,WUHU216CR1000,2013-02-19 15:44:00,
2013-02-19 07:49:00,39.7,38.3,0.00,ENE,64,2.7,7.0,95,0.00,,,0.00,WUHU216CR1000,2013-02-19 15:49:00,
2013-02-19 07:54:00,39.7,38.3,0.00,ENE,64,2.7,4.5,95,0.00,,,0.00,WUHU216CR1000,2013-02-19 15:54:00,
2013-02-19 08:02:00,40.0,38.7,0.00,NNE,27,1.1,3.6,95,0.00,,,0.00,WUHU216CR1000,2013-02-19 16:02:00,
2013-02-19 08:07:00,40.0,38.7,0.00,NNE,27,1.1,3.6,95,0.00,,,0.00,WUHU216CR1000,2013-02-19 16:07:00,
2013-02-19 08:12:00,40.0,38.7,0.00,NNE,27,1.1,3.6,95,0.00,,,0.00,WUHU216CR1000,2013-02-19 16:12:00,
2013-02-19 08:17:00,40.6,39.3,0.00,NE,43,0.6,3.6,95,0.00,,,0.00,WUHU216CR1000,2013-02-19 16:17:00,
2013-02-19 08:22:00,40.6,39.3,0.00,NE,43,0.6,3.0,95,0.00,,,0.00,WUHU216CR1000,2013-02-19 16:22:00,
2013-02-19 08:32:00,41.0,39.7,0.00,North,0,0.0,0.0,95,0.00,,,0.00,WUHU216CR1000,2013-02-19 16:32:00,
2013-02-19 08:37:00,41.0,39.7,0.00,North,0,0.0,0.0,95,0.00,,,0.00,WUHU216CR1000,2013-02-19 16:37:00,
2013-02-19 08:42:00,41.0,39.7,0.00,North,0,0.0,0.0,95,0.00,,,0.00,WUHU216CR1000,2013-02-19 16:42:00,
2013-02-19 08:47:00,41.6,40.3,0.00,North,0,0.0,0.0,95,0.00,,,0.00,WUHU216CR1000,2013-02-19 16:47:00,
2013-02-19 08:52:00,41.6,40.3,0.00,North,0,0.0,0.0,95,0.00,,,0.00,WUHU216CR1000,2013-02-19 16:52:00,
2013-02-19 09:02:00,42.0,40.6,0.00,SW,217,2.4,7.1,95,0.00,,,0.00,WUHU216CR1000,2013-02-19 17:02:00,
2013-02-19 09:07:00,42.0,40.6,0.00,SW,217,2.4,7.1,95,0.00,,,0.00,WUHU216CR1000,2013-02-19 17:07:00,
2013-02-19 09:12:00,42.0,40.6,0.00,SW,217,2.4,7.1,95,0.00,,,0.00,WUHU216CR1000,2013-02-19 17:12:00,
2013-02-19 09:17:00,42.8,41.1,0.00,WSW,250,2.6,7.1,94,0.00,,,0.00,WUHU216CR1000,2013-02-19 17:17:00,
2013-02-19 09:22:00,42.8,41.1,0.00,WSW,250,2.6,7.1,94,0.00,,,0.00,WUHU216CR1000,2013-02-19 17:22:00,
2013-02-19 09:32:00,44.2,40.5,0.00,West,261,4.6,8.7,87,0.00,,,0.00,WUHU216CR1000,2013-02-19 17:32:00,
2013-02-19 09:37:00,44.2,40.5,0.00,West,261,4.6,8.7,87,0.00,,,0.00,WUHU216CR1000,2013-02-19 17:37:00,
2013-02-19 09:42:00,44.2,40.5,0.00,West,261,4.6,8.7,87,0.00,,,0.00,WUHU216CR1000,2013-02-19 17:42:00,
2013-02-19 09:47:00,45.0,39.1,0.00,West,271,5.9,10.3,80,0.00,,,0.00,WUHU216CR1000,2013-02-19 17:47:00,
2013-02-19 09:52:00,45.0,39.1,0.00,West,271,5.9,10.3,80,0.00,,,0.00,WUHU216CR1000,2013-02-19 17:52:00,
2013-02-19 10:02:00,45.4,40.2,0.00,WSW,244,3.8,6.8,82,0.00,,,0.00,WUHU216CR1000,2013-02-19 18:02:00,
2013-02-19 10:07:00,45.4,40.2,0.00,WSW,244,3.8,6.8,82,0.00,,,0.00,WUHU216CR1000,2013-02-19 18:07:00,
2013-02-19 10:12:00,45.4,40.2,0.00,WSW,244,3.8,6.8,82,0.00,,,0.00,WUHU216CR1000,2013-02-19 18:12:00,
2013-02-19 10:17:00,46.3,40.3,0.00,WSW,239,3.5,6.9,80,0.00,,,0.00,WUHU216CR1000,2013-02-19 18:17:00,
2013-02-19 10:22:00,46.3,40.3,0.00,WSW,239,3.5,6.9,80,0.00,,,0.00,WUHU216CR1000,2013-02-19 18:22:00,
2013-02-19 10:27:00,46.3,40.3,0.00,WSW,239,3.5,6.9,80,0.00,,,0.00,WUHU216CR1000,2013-02-19 18:27:00,
2013-02-19 10:32:00,46.8,39.2,0.00,WSW,255,3.4,7.6,75,0.00,,,0.00,WUHU216CR1000,2013-02-19 18:32:00,
2013-02-19 10:37:00,46.8,39.2,0.00,WSW,255,3.4,7.6,75,0.00,,,0.00,WUHU216CR1000,2013-02-19 18:37:00,
2013-02-19 10:42:00,46.8,39.2,0.00,WSW,255,3.4,7.6,75,0.00,,,0.00,WUHU216CR1000,2013-02-19 18:42:00,
2013-02-19 10:47:00,46.8,39.2,0.00,WSW,255,3.4,7.6,75,0.00,,,0.00,WUHU216CR1000,2013-02-19 18:47:00,
2013-02-19 10:52:00,46.2,38.8,0.00,West,259,6.1,19.2,75,0.00,,,0.00,WUHU216CR1000,2013-02-19 18:52:00,
2013-02-19 11:02:00,42.4,37.2,0.00,NW,306,13.7,23.9,82,0.00,,,0.00,WUHU216CR1000,2013-02-19 19:02:00,
2013-02-19 11:07:00,42.4,37.2,0.00,NW,306,13.7,23.9,82,0.00,,,0.00,WUHU216CR1000,2013-02-19 19:07:00,
2013-02-19 11:12:00,42.4,37.2,0.00,NW,306,13.7,23.9,82,0.00,,,0.00,WUHU216CR1000,2013-02-19 19:12:00,
2013-02-19 11:17:00,43.9,38.5,0.00,WNW,303,8.8,23.9,81,0.00,,,0.00,WUHU216CR1000,2013-02-19 19:17:00,
2013-02-19 11:22:00,43.9,38.5,0.00,WNW,303,8.8,16.3,81,0.00,,,0.00,WUHU216CR1000,2013-02-19 19:22:00,
2013-02-19 11:32:00,44.3,38.1,0.00,WNW,291,8.5,13.8,79,0.00,,,0.00,WUHU216CR1000,2013-02-19 19:32:00,
2013-02-19 11:37:00,44.3,38.1,0.00,WNW,291,8.5,13.8,79,0.00,,,0.00,WUHU216CR1000,2013-02-19 19:37:00,
2013-02-19 11:42:00,44.3,38.1,0.00,WNW,291,8.5,13.8,79,0.00,,,0.00,WUHU216CR1000,2013-02-19 19:42:00,
2013-02-19 11:47:00,44.6,37.9,0.00,WNW,285,10.6,18.6,77,0.00,,,0.00,WUHU216CR1000,2013-02-19 19:47:00,
2013-02-19 11:52:00,44.6,37.9,0.00,WNW,285,10.6,18.6,77,0.00,,,0.00,WUHU216CR1000,2013-02-19 19:52:00,
2013-02-19 12:02:00,45.9,38.2,0.00,WNW,295,11.7,18.2,74,0.00,,,0.00,WUHU216CR1000,2013-02-19 20:02:00,
2013-02-19 12:07:00,45.9,38.2,0.00,WNW,295,11.7,18.2,74,0.00,,,0.00,WUHU216CR1000,2013-02-19 20:07:00,
2013-02-19 12:12:00,45.9,38.2,0.00,WNW,295,11.7,18.2,74,0.00,,,0.00,WUHU216CR1000,2013-02-19 20:12:00,
2013-02-19 12:17:00,46.4,37.3,0.00,WNW,300,10.4,20.1,71,0.00,,,0.00,WUHU216CR1000,2013-02-19 20:17:00,
2013-02-19 12:22:00,46.4,37.3,0.00,WNW,300,10.4,20.1,71,0.00,,,0.00,WUHU216CR1000,2013-02-19 20:22:00,
2013-02-19 12:32:00,47.0,36.1,0.00,WNW,287,8.9,14.1,66,0.00,,,0.00,WUHU216CR1000,2013-02-19 20:32:00,
2013-02-19 12:37:00,47.0,36.1,0.00,WNW,287,8.9,14.1,66,0.00,,,0.00,WUHU216CR1000,2013-02-19 20:37:00,
2013-02-19 12:42:00,47.0,36.1,0.00,WNW,287,8.9,14.1,66,0.00,,,0.00,WUHU216CR1000,2013-02-19 20:42:00,
2013-02-19 12:47:00,47.7,36.3,0.00,WNW,289,7.7,14.9,64,0.00,,,0.00,WUHU216CR1000,2013-02-19 20:47:00,
2013-02-19 12:52:00,47.7,36.3,0.00,WNW,289,7.7,14.9,64,0.00,,,0.00,WUHU216CR1000,2013-02-19 20:52:00,
2013-02-19 12:57:00,47.7,36.3,0.00,WNW,289,7.7,14.9,64,0.00,,,0.00,WUHU216CR1000,2013-02-19 20:57:00,
2013-02-19 13:02:00,48.7,36.1,0.00,WNW,297,11.6,19.7,62,0.00,,,0.00,WUHU216CR1000,2013-02-19 21:02:00,
2013-02-19 13:07:00,48.7,36.1,0.00,WNW,297,11.6,19.7,62,0.00,,,0.00,WUHU216CR1000,2013-02-19 21:07:00,
2013-02-19 13:12:00,48.7,36.1,0.00,WNW,297,11.6,19.7,62,0.00,,,0.00,WUHU216CR1000,2013-02-19 21:12:00,
2013-02-19 13:17:00,48.7,36.0,0.00,NW,310,10.8,19.9,61,0.00,,,0.00,WUHU216CR1000,2013-02-19 21:17:00,
2013-02-19 13:22:00,48.7,36.0,0.00,NW,310,10.8,19.9,61,0.00,,,0.00,WUHU216CR1000,2013-02-19 21:22:00,
2013-02-19 13:27:00,48.7,36.0,0.00,NW,310,10.8,19.9,61,0.00,,,0.00,WUHU216CR1000,2013-02-19 21:27:00,
2013-02-19 13:32:00,49.1,35.7,0.00,WNW,286,10.4,16.8,60,0.00,,,0.00,WUHU216CR1000,2013-02-19 21:32:00,
2013-02-19 13:37:00,49.1,35.7,0.00,WNW,286,10.4,16.8,60,0.00,,,0.00,WUHU216CR1000,2013-02-19 21:37:00,
2013-02-19 13:42:00,49.1,35.7,0.00,WNW,286,10.4,16.8,60,0.00,,,0.00,WUHU216CR1000,2013-02-19 21:42:00,
2013-02-19 13:47:00,49.6,35.4,0.00,WNW,282,10.5,20.2,58,0.00,,,0.00,WUHU216CR1000,2013-02-19 21:47:00,
2013-02-19 13:52:00,49.6,35.4,0.00,WNW,282,10.5,20.2,58,0.00,,,0.00,WUHU216CR1000,2013-02-19 21:52:00,
2013-02-19 13:57:00,49.6,35.4,0.00,WNW,282,10.5,20.2,58,0.00,,,0.00,WUHU216CR1000,2013-02-19 21:57:00,
2013-02-19 14:02:00,50.1,34.3,0.00,NW,310,12.3,20.4,54,0.00,,,0.00,WUHU216CR1000,2013-02-19 22:02:00,
2013-02-19 14:07:00,50.1,34.3,0.00,NW,310,12.3,20.4,54,0.00,,,0.00,WUHU216CR1000,2013-02-19 22:07:00,
2013-02-19 14:12:00,50.1,34.3,0.00,NW,310,12.3,20.4,54,0.00,,,0.00,WUHU216CR1000,2013-02-19 22:12:00,
2013-02-19 14:17:00,46.8,30.9,0.00,WNW,302,13.4,29.0,54,0.00,,,0.00,WUHU216CR1000,2013-02-19 22:17:00,
2013-02-19 14:22:00,46.8,30.9,0.00,WNW,302,13.4,29.0,54,0.00,,,0.00,WUHU216CR1000,2013-02-19 22:22:00,
2013-02-19 14:27:00,46.8,30.9,0.00,WNW,302,13.4,29.0,54,0.00,,,0.00,WUHU216CR1000,2013-02-19 22:27:00,
2013-02-19 14:32:00,47.0,32.8,0.00,West,274,9.1,14.6,57,0.00,,,0.00,WUHU216CR1000,2013-02-19 22:32:00,
2013-02-19 14:37:00,47.0,32.8,0.00,West,274,9.1,14.6,57,0.00,,,0.00,WUHU216CR1000,2013-02-19 22:37:00,
2013-02-19 14:42:00,47.0,32.8,0.00,West,274,9.1,14.6,57,0.00,,,0.00,WUHU216CR1000,2013-02-19 22:42:00,
2013-02-19 14:47:00,48.7,32.9,0.00,WNW,294,13.8,22.1,54,0.00,,,0.00,WUHU216CR1000,2013-02-19 22:47:00,
2013-02-19 14:52:00,48.7,32.9,0.00,WNW,294,13.8,22.1,54,0.00,,,0.00,WUHU216CR1000,2013-02-19 22:52:00,
2013-02-19 14:57:00,48.7,32.9,0.00,WNW,294,13.8,22.1,54,0.00,,,0.00,WUHU216CR1000,2013-02-19 22:57:00,
2013-02-19 15:02:00,48.2,32.5,0.00,WNW,283,11.0,17.0,54,0.00,,,0.00,WUHU216CR1000,2013-02-19 23:02:00,
2013-02-19 15:07:00,48.2,32.5,0.00,WNW,283,11.0,17.0,54,0.00,,,0.00,WUHU216CR1000,2013-02-19 23:07:00,
2013-02-19 15:12:00,48.2,32.5,0.00,WNW,283,11.0,17.0,54,0.00,,,0.00,WUHU216CR1000,2013-02-19 23:12:00,
2013-02-19 15:17:00,49.1,32.8,0.00,WNW,295,11.4,18.5,53,0.00,,,0.00,WUHU216CR1000,2013-02-19 23:17:00,
2013-02-19 15:22:00,49.1,32.8,0.00,WNW,295,11.4,18.5,53,0.00,,,0.00,WUHU216CR1000,2013-02-19 23:22:00,
2013-02-19 15:27:00,49.1,32.8,0.00,WNW,295,11.4,18.5,53,0.00,,,0.00,WUHU216CR1000,2013-02-19 23:27:00,
2013-02-19 15:32:00,48.1,34.0,0.00,WNW,303,14.6,24.4,58,0.00,,,0.00,WUHU216CR1000,2013-02-19 23:32:00,
2013-02-19 15:37:00,48.1,34.0,0.00,WNW,303,14.6,24.4,58,0.00,,,0.00,WUHU216CR1000,2013-02-19 23:37:00,
2013-02-19 15:42:00,48.1,34.0,0.00,WNW,303,14.6,24.4,58,0.00,,,0.00,WUHU216CR1000,2013-02-19 23:42:00,
2013-02-19 15:47:00,45.5,34.5,0.00,NW,317,12.1,20.7,65,0.00,,,0.00,WUHU216CR1000,2013-02-19 23:47:00,
2013-02-19 15:52:00,45.5,34.5,0.00,NW,317,12.1,20.7,65,0.00,,,0.00,WUHU216CR1000,2013-02-19 23:52:00,
2013-02-19 15:57:00,45.5,34.5,0.00,NW,317,12.1,20.7,65,0.00,,,0.00,WUHU216CR1000,2013-02-19 23:57:00,
2013-02-19 16:02:00,45.8,34.9,0.00,NW,311,9.9,15.4,65,0.00,,,0.00,WUHU216CR1000,2013-02-20 00:02:00,
2013-02-19 16:07:00,45.8,34.9,0.00,NW,311,9.9,15.4,65,0.00,,,0.00,WUHU216CR1000,2013-02-20 00:07:00,
2013-02-19 16:12:00,45.8,34.9,0.00,NW,311,9.9,15.4,65,0.00,,,0.00,WUHU216CR1000,2013-02-20 00:12:00,
2013-02-19 16:17:00,46.5,34.1,0.00,WNW,294,9.9,17.9,62,0.00,,,0.00,WUHU216CR1000,2013-02-20 00:17:00,
2013-02-19 16:22:00,46.5,34.1,0.00,WNW,294,9.9,17.9,62,0.00,,,0.00,WUHU216CR1000,2013-02-20 00:22:00,
2013-02-19 16:27:00,46.5,34.1,0.00,WNW,294,9.9,17.9,62,0.00,,,0.00,WUHU216CR1000,2013-02-20 00:27:00,
2013-02-19 16:32:00,46.3,33.8,0.00,WNW,289,8.8,18.2,61,0.00,,,0.00,WUHU216CR1000,2013-02-20 00:32:00,
2013-02-19 16:37:00,46.3,33.8,0.00,WNW,289,8.8,18.2,61,0.00,,,0.00,WUHU216CR1000,2013-02-20 00:37:00,
2013-02-19 16:42:00,46.3,33.8,0.00,WNW,289,8.8,18.2,61,0.00,,,0.00,WUHU216CR1000,2013-02-20 00:42:00,
2013-02-19 16:47:00,46.3,32.5,0.00,WNW,283,11.8,20.1,59,0.00,,,0.00,WUHU216CR1000,2013-02-20 00:47:00,
2013-02-19 16:52:00,46.3,32.5,0.00,WNW,283,11.8,20.1,59,0.00,,,0.00,WUHU216CR1000,2013-02-20 00:52:00,
2013-02-19 16:57:00,46.3,32.5,0.00,WNW,283,11.8,20.1,59,0.00,,,0.00,WUHU216CR1000,2013-02-20 00:57:00,
2013-02-19 17:02:00,45.6,32.8,0.00,West,281,8.7,16.1,61,0.00,,,0.00,WUHU216CR1000,2013-02-20 01:02:00,
2013-02-19 17:07:00,45.6,32.8,0.00,West,281,8.7,16.1,61,0.00,,,0.00,WUHU216CR1000,2013-02-20 01:07:00,
2013-02-19 17:12:00,45.6,32.8,0.00,West,281,8.7,16.1,61,0.00,,,0.00,WUHU216CR1000,2013-02-20 01:12:00,
2013-02-19 17:17:00,45.5,32.5,0.00,WNW,289,8.5,13.0,60,0.00,,,0.00,WUHU216CR1000,2013-02-20 01:17:00,
2013-02-19 17:22:00,45.5,32.5,0.00,WNW,289,8.5,13.0,60,0.00,,,0.00,WUHU216CR1000,2013-02-20 01:22:00,
2013-02-19 17:27:00,45.5,32.5,0.00,WNW,289,8.5,13.0,60,0.00,,,0.00,WUHU216CR1000,2013-02-20 01:27:00,
2013-02-19 17:32:00,45.1,32.9,0.00,WNW,303,7.7,13.9,62,0.00,,,0.00,WUHU216CR1000,2013-02-20 01:32:00,
2013-02-19 17:37:00,45.1,32.9,0.00,WNW,303,7.7,13.9,62,0.00,,,0.00,WUHU216CR1000,2013-02-20 01:37:00,
2013-02-19 17:42:00,45.1,32.9,0.00,WNW,303,7.7,13.9,62,0.00,,,0.00,WUHU216CR1000,2013-02-20 01:42:00,
2013-02-19 17:47:00,44.5,32.0,0.00,NW,313,6.3,13.7,61,0.00,,,0.00,WUHU216CR1000,2013-02-20 01:47:00,
2013-02-19 17:52:00,44.5,32.0,0.00,NW,313,6.3,13.7,61,0.00,,,0.00,WUHU216CR1000,2013-02-20 01:52:00,
2013-02-19 17:57:00,44.5,32.0,0.00,NW,313,6.3,13.7,61,0.00,,,0.00,WUHU216CR1000,2013-02-20 01:57:00,
2013-02-19 18:02:00,43.9,31.4,0.00,NNW,327,6.0,10.1,61,0.00,,,0.00,WUHU216CR1000,2013-02-20 02:02:00,
2013-02-19 18:07:00,43.9,31.4,0.00,NNW,327,6.0,10.1,61,0.00,,,0.00,WUHU216CR1000,2013-02-20 02:07:00,
2013-02-19 18:12:00,43.9,31.4,0.00,NNW,327,6.0,10.1,61,0.00,,,0.00,WUHU216CR1000,2013-02-20 02:12:00,
2013-02-19 18:17:00,43.3,31.3,0.00,NW,306,4.1,9.8,62,0.00,,,0.00,WUHU216CR1000,2013-02-20 02:17:00,
2013-02-19 18:22:00,43.3,31.3,0.00,NW,306,4.1,9.8,62,0.00,,,0.00,WUHU216CR1000,2013-02-20 02:22:00,
2013-02-19 18:27:00,43.3,31.3,0.00,NW,306,4.1,9.8,62,0.00,,,0.00,WUHU216CR1000,2013-02-20 02:27:00,
2013-02-19 18:32:00,41.6,31.9,0.00,WSW,254,3.2,7.3,68,0.00,,,0.00,WUHU216CR1000,2013-02-20 02:32:00,
2013-02-19 18:37:00,41.6,31.9,0.00,WSW,254,3.2,7.3,68,0.00,,,0.00,WUHU216CR1000,2013-02-20 02:37:00,
2013-02-19 18:42:00,41.6,31.9,0.00,WSW,254,3.2,7.3,68,0.00,,,0.00,WUHU216CR1000,2013-02-20 02:42:00,
2013-02-19 18:47:00,41.6,32.1,0.00,WNW,284,4.2,7.3,69,0.00,,,0.00,WUHU216CR1000,2013-02-20 02:47:00,
2013-02-19 18:52:00,41.6,32.1,0.00,WNW,284,4.2,7.3,69,0.00,,,0.00,WUHU216CR1000,2013-02-20 02:52:00,
2013-02-19 18:57:00,41.6,32.1,0.00,WNW,284,4.2,7.3,69,0.00,,,0.00,WUHU216CR1000,2013-02-20 02:57:00,
2013-02-19 19:02:00,41.1,32.7,0.00,WNW,288,5.0,9.1,72,0.00,,,0.00,WUHU216CR1000,2013-02-20 03:02:00,
2013-02-19 19:07:00,41.1,32.7,0.00,WNW,288,5.0,9.1,72,0.00,,,0.00,WUHU216CR1000,2013-02-20 03:07:00,
2013-02-19 19:12:00,41.1,32.7,0.00,WNW,288,5.0,9.1,72,0.00,,,0.00,WUHU216CR1000,2013-02-20 03:12:00,
2013-02-19 19:17:00,41.2,32.9,0.00,WNW,289,5.8,9.0,72,0.00,,,0.00,WUHU216CR1000,2013-02-20 03:17:00,
2013-02-19 19:22:00,41.2,32.9,0.00,WNW,289,5.8,9.0,72,0.00,,,0.00,WUHU216CR1000,2013-02-20 03:22:00,
2013-02-19 19:27:00,41.2,32.9,0.00,WNW,289,5.8,9.0,72,0.00,,,0.00,WUHU216CR1000,2013-02-20 03:27:00,
2013-02-19 19:32:00,40.9,33.1,0.00,WNW,287,8.0,12.7,74,0.00,,,0.00,WUHU216CR1000,2013-02-20 03:32:00,
2013-02-19 19:37:00,40.9,33.1,0.00,WNW,287,8.0,12.7,74,0.00,,,0.00,WUHU216CR1000,2013-02-20 03:37:00,
2013-02-19 19:42:00,40.9,33.1,0.00,WNW,287,8.0,12.7,74,0.00,,,0.00,WUHU216CR1000,2013-02-20 03:42:00,
2013-02-19 19:47:00,41.2,33.0,0.00,WNW,298,6.4,11.3,72,0.00,,,0.00,WUHU216CR1000,2013-02-20 03:47:00,
2013-02-19 19:52:00,41.2,33.0,0.00,WNW,298,6.4,11.3,72,0.00,,,0.00,WUHU216CR1000,2013-02-20 03:52:00,
2013-02-19 19:57:00,41.2,33.0,0.00,WNW,298,6.4,11.3,72,0.00,,,0.00,WUHU216CR1000,2013-02-20 03:57:00,
2013-02-19 20:02:00,40.5,32.6,0.00,WNW,290,7.3,11.1,73,0.00,,,0.00,WUHU216CR1000,2013-02-20 04:02:00,
2013-02-19 20:07:00,40.5,32.6,0.00,WNW,290,7.3,11.1,73,0.00,,,0.00,WUHU216CR1000,2013-02-20 04:07:00,
2013-02-19 20:12:00,40.5,32.6,0.00,WNW,290,7.3,11.1,73,0.00,,,0.00,WUHU216CR1000,2013-02-20 04:12:00,
2013-02-19 20:17:00,40.1,32.6,0.00,WNW,285,6.3,10.5,74,0.00,,,0.00,WUHU216CR1000,2013-02-20 04:17:00,
2013-02-19 20:22:00,40.1,32.6,0.00,WNW,285,6.3,10.5,74,0.00,,,0.00,WUHU216CR1000,2013-02-20 04:22:00,
2013-02-19 20:27:00,40.1,32.6,0.00,WNW,285,6.3,10.5,74,0.00,,,0.00,WUHU216CR1000,2013-02-20 04:27:00,
2013-02-19 20:32:00,39.8,32.5,0.00,WNW,300,4.6,7.7,75,0.00,,,0.00,WUHU216CR1000,2013-02-20 04:32:00,
2013-02-19 20:37:00,39.8,32.5,0.00,WNW,300,4.6,7.7,75,0.00,,,0.00,WUHU216CR1000,2013-02-20 04:37:00,
2013-02-19 20:42:00,39.8,32.5,0.00,WNW,300,4.6,7.7,75,0.00,,,0.00,WUHU216CR1000,2013-02-20 04:42:00,
2013-02-19 20:47:00,39.6,32.5,0.00,WNW,303,4.6,8.3,76,0.00,,,0.00,WUHU216CR1000,2013-02-20 04:47:00,
2013-02-19 20:52:00,39.6,32.5,0.00,WNW,303,4.6,8.3,76,0.00,,,0.00,WUHU216CR1000,2013-02-20 04:52:00,
2013-02-19 20:57:00,39.6,32.5,0.00,WNW,303,4.6,8.3,76,0.00,,,0.00,WUHU216CR1000,2013-02-20 04:57:00,
2013-02-19 21:02:00,39.5,32.4,0.00,WNW,299,5.7,9.9,76,0.00,,,0.00,WUHU216CR1000,2013-02-20 05:02:00,
2013-02-19 21:07:00,39.5,32.4,0.00,WNW,299,5.7,9.9,76,0.00,,,0.00,WUHU216CR1000,2013-02-20 05:07:00,
2013-02-19 21:12:00,39.5,32.4,0.00,WNW,299,5.7,9.9,76,0.00,,,0.00,WUHU216CR1000,2013-02-20 05:12:00,
2013-02-19 21:17:00,40.1,32.6,0.00,NW,306,7.7,12.2,74,0.00,,,0.00,WUHU216CR1000,2013-02-20 05:17:00,
2013-02-19 21:22:00,40.1,32.6,0.00,NW,306,7.7,12.2,74,0.00,,,0.00,WUHU216CR1000,2013-02-20 05:22:00,
2013-02-19 21:27:00,40.1,32.6,0.00,NW,306,7.7,12.2,74,0.00,,,0.00,WUHU216CR1000,2013-02-20 05:27:00,
2013-02-19 21:32:00,40.2,32.6,0.00,NW,314,8.6,13.9,74,0.00,,,0.00,WUHU216CR1000,2013-02-20 05:32:00,
2013-02-19 21:37:00,40.2,32.6,0.00,NW,314,8.6,13.9,74,0.00,,,0.00,WUHU216CR1000,2013-02-20 05:37:00,
2013-02-19 21:42:00,40.2,32.6,0.00,NW,314,8.6,13.9,74,0.00,,,0.00,WUHU216CR1000,2013-02-20 05:42:00,
2013-02-19 21:47:00,39.7,32.5,0.00,NNW,327,6.1,11.7,75,0.00,,,0.00,WUHU216CR1000,2013-02-20 05:47:00,
2013-02-19 21:52:00,39.7,32.5,0.00,NNW,327,6.1,11.7,75,0.00,,,0.00,WUHU216CR1000,2013-02-20 05:52:00,
2013-02-19 21:57:00,39.7,32.5,0.00,NNW,327,6.1,11.7,75,0.00,,,0.00,WUHU216CR1000,2013-02-20 05:57:00,
2013-02-19 22:02:00,39.2,32.5,0.00,NW,309,5.7,10.6,77,0.00,,,0.00,WUHU216CR1000,2013-02-20 06:02:00,
2013-02-19 22:07:00,39.2,32.5,0.00,NW,309,5.7,10.6,77,0.00,,,0.00,WUHU216CR1000,2013-02-20 06:07:00,
2013-02-19 22:12:00,39.2,32.5,0.00,NW,309,5.7,10.6,77,0.00,,,0.00,WUHU216CR1000,2013-02-20 06:12:00,
2013-02-19 22:17:00,38.9,32.3,0.00,WNW,303,5.8,10.0,77,0.00,,,0.00,WUHU216CR1000,2013-02-20 06:17:00,
2013-02-19 22:22:00,38.9,32.3,0.00,WNW,303,5.8,10.0,77,0.00,,,0.00,WUHU216CR1000,2013-02-20 06:22:00,
2013-02-19 22:27:00,38.9,32.3,0.00,WNW,303,5.8,10.0,77,0.00,,,0.00,WUHU216CR1000,2013-02-20 06:27:00,
2013-02-19 22:32:00,38.1,32.1,0.00,NW,314,5.0,8.9,79,0.00,,,0.00,WUHU216CR1000,2013-02-20 06:32:00,
2013-02-19 22:37:00,38.1,32.1,0.00,NW,314,5.0,8.9,79,0.00,,,0.00,WUHU216CR1000,2013-02-20 06:37:00,
2013-02-19 22:42:00,38.1,32.1,0.00,NW,314,5.0,8.9,79,0.00,,,0.00,WUHU216CR1000,2013-02-20 06:42:00,
2013-02-19 22:47:00,36.5,31.6,0.00,WNW,302,5.1,6.9,82,0.00,,,0.00,WUHU216CR1000,2013-02-20 06:47:00,
2013-02-19 22:48:00,36.5,31.6,0.00,WNW,302,5.1,6.9,82,0.00,,,0.00,WUHU216CR1000,2013-02-20 06:48:00,
2013-02-19 22:52:00,36.5,31.6,0.00,WNW,302,5.1,6.9,82,0.00,,,0.00,WUHU216CR1000,2013-02-20 06:52:00,
2013-02-19 22:57:00,36.5,31.6,0.00,WNW,302,5.1,6.9,82,0.00,,,0.00,WUHU216CR1000,2013-02-20 06:57:00,
2013-02-19 23:02:00,36.2,31.6,0.00,NW,319,4.5,6.0,83,0.00,,,0.00,WUHU216CR1000,2013-02-20 07:02:00,
2013-02-19 23:07:00,36.2,31.6,0.00,NW,319,4.5,6.0,83,0.00,,,0.00,WUHU216CR1000,2013-02-20 07:07:00,
2013-02-19 23:12:00,36.2,31.6,0.00,NW,319,4.5,6.0,83,0.00,,,0.00,WUHU216CR1000,2013-02-20 07:12:00,
2013-02-19 23:17:00,36.0,31.3,0.00,NW,311,2.9,5.5,83,0.00,,,0.00,WUHU216CR1000,2013-02-20 07:17:00,
2013-02-19 23:22:00,36.0,31.3,0.00,NW,311,2.9,5.5,83,0.00,,,0.00,WUHU216CR1000,2013-02-20 07:22:00,
2013-02-19 23:27:00,36.0,31.3,0.00,NW,311,2.9,5.5,83,0.00,,,0.00,WUHU216CR1000,2013-02-20 07:27:00,
2013-02-19 23:32:00,35.5,31.2,0.00,WNW,295,0.3,2.5,84,0.00,,,0.00,WUHU216CR1000,2013-02-20 07:32:00,
2013-02-19 23:37:00,35.5,31.2,0.00,WNW,295,0.3,2.5,84,0.00,,,0.00,WUHU216CR1000,2013-02-20 07:37:00,
2013-02-19 23:42:00,35.5,31.2,0.00,WNW,295,0.3,2.5,84,0.00,,,0.00,WUHU216CR1000,2013-02-20 07:42:00,
2013-02-19 23:47:00,36.1,31.4,0.00,WNW,282,1.2,2.7,83,0.00,,,0.00,WUHU216CR1000,2013-02-20 07:47:00,
2013-02-19 23:52:00,36.1,31.4,0.00,WNW,282,1.2,2.7,83,0.00,,,0.00,WUHU216CR1000,2013-02-20 07:52:00,
2013-02-19 23:57:00,36.1,31.4,0.00,WNW,282,1.2,2.7,83,0.00,,,0.00,WUHU216CR1000,2013-02-20 07:57:00,